User: anonymous
Location: Unspecified
(0.0000°N, 0.0000°E)
Time: 07:56:31
(UTC+02:00)
Language:

Cosmos 2279 Rocket - Orbit

View from above orbital plane
View from above orbital plane
View from above satellite
View from above satellite

Ground track
Ground track

The orbit data is extracted from the following two-line orbital elements,

1 23093U 94024B   14272.21675074  .00000072  00000-0  57316-4 0  9146
2 23093 082.9457 132.2098 0008823 262.4272 097.5883 13.77627646494843
Epoch (UTC): 29 September 2014 05:12:07
Eccentricity: 0.0008823
inclination: 82.9457°
perigee height: 966 km
apogee height: 979 km
right ascension of ascending node: 132.2098°
argument of perigee: 262.4272°
revolutions per day: 13.77627646
mean anomaly at epoch: 97.5883°
orbit number at epoch: 49484

The dashed part of the orbit path shows where the satellite is in the earth's shadow,  

DLR